Location: ??????
(55.0357°N, 38.6195°E)
Time: 14:23:50
(UTC+00:00)

ATLAS 2AS CENTAUR R/B - Pass Details

Date: 14 April 2024
Orbit: 1015 x 1196 km, 63.7° (Epoch: 18 May)

Event Time Altitude Azimuth Distance (km) Brightness Sun altitude
Exits shadow 01:09:55 - 192° (SSW) 4,112 5.3 -10.4°
Rises 01:10:04 0° 192° (SSW) 4,057 5.3 -10.4°
Reaches altitude 10° 01:13:01 10° 185° (S) 3,081 4.8 -10.0°
Maximum altitude 01:19:40 38° 120° (ESE) 1,677 4.0 -9.2°
Drops below altitude 10° 01:26:06 10° 56° (NE) 2,986 6.8 -8.4°
Sets 01:28:54 0° 49° (NE) 3,920 7.7 -8.1°
